Location: Contre
(49.7477°N, 2.0963°E)
Time: 00:15:15
(UTC+00:00)

Okean O Rocket - Pass Details

Date: 03 February 2023
Orbit: 620 x 643 km, 98.1° (Epoch: 01 April)

Event Time Altitude Azimuth Distance (km) Brightness Sun altitude
Rises 19:15:03 0° 176° (S) 2,908 4.9 -23.7°
Reaches altitude 10° 19:17:16 10° 180° (S) 2,009 4.1 -24.0°
Maximum altitude 19:21:34 56° 259° (W) 761 2.2 -24.7°
Drops below altitude 10° 19:25:56 10° 338° (NNW) 2,040 4.5 -25.4°
Sets 19:28:12 0° 343° (NNW) 2,958 5.3 -25.8°
